When you browse on this site, cookies collect data to enhance your experience and personalize the content and advertising you see.
Visit our Privacy Policy to learn more. By continuing to use the site, you agree to this use of cookies and data.
  • In Netherlands
  • List of Countries
  • For 7 days
  • Water Temperature
  • Weather Map
  • Weather Widgets
  • user-avatar
    Login

    Hourly Weather Senchukovo

    Today, 26 May, Tuesday

    Time Temperature Precipitation Wind Pressure Humidity
    00:00 +7°C° 0 mm 0 mps 753 mmHg 87%
    01:00 +7°C° 0 mm 0 mps 753 mmHg 88%
    02:00 +7°C° 0 mm 0 mps 754 mmHg 88%
    03:00 +7°C° 0 mm 0 mps 754 mmHg 86%
    04:00 +8°C° 0 mm 0 mps 754 mmHg 84%
    05:00 +9°C° 0 mm 0 mps 755 mmHg 82%
    06:00 +11°C° 0 mm 0 mps 755 mmHg 74%
    07:00 +15°C° 0 mm 1 mps 755 mmHg 66%
    08:00 +16°C° 0 mm 0 mps 755 mmHg 57%
    09:00 +19°C° 0 mm 1 mps 755 mmHg 52%
    10:00 +20°C° 0 mm 1 mps 755 mmHg 46%
    11:00 +21°C° 0 mm 1 mps 755 mmHg 40%
    12:00 +21°C° 0 mm 1 mps 755 mmHg 41%
    13:00 +21°C° 0 mm 1 mps 755 mmHg 41%
    14:00 +20°C° 0 mm 1 mps 754 mmHg 43%
    15:00 +20°C° 0 mm 1 mps 754 mmHg 49%
    16:00 +19°C° 0 mm 1 mps 754 mmHg 55%
    17:00 +19°C° 0 mm 1 mps 753 mmHg 61%
    18:00 +16°C° 0 mm 1 mps 753 mmHg 65%
    19:00 +14°C° 0 mm 1 mps 753 mmHg 70%
    20:00 +13°C° 0 mm 1 mps 753 mmHg 75%
    21:00 +11°C° 0 mm 0 mps 753 mmHg 78%
    22:00 +10°C° 0 mm 0 mps 753 mmHg 80%
    23:00 +10°C° 0 mm 0 mps 753 mmHg 82%

    Tomorrow, 27 May, Wednesday

    Time Temperature Precipitation Wind Pressure Humidity
    00:00 +10°C° 0 mm 0 mps 753 mmHg 82%
    01:00 +11°C° 0 mm 1 mps 752 mmHg 82%
    02:00 +10°C° 0 mm 1 mps 752 mmHg 81%
    03:00 +11°C° 0 mm 1 mps 752 mmHg 81%
    04:00 +11°C° 0 mm 1 mps 752 mmHg 81%
    05:00 +11°C° 0 mm 1 mps 752 mmHg 81%
    06:00 +13°C° 0 mm 1 mps 752 mmHg 75%
    07:00 +14°C° 0 mm 1 mps 752 mmHg 68%
    08:00 +15°C° 0 mm 0 mps 752 mmHg 62%
    09:00 +16°C° 0.1 mm 0 mps 752 mmHg 58%
    10:00 +17°C° 0.1 mm 0 mps 751 mmHg 54%
    11:00 +19°C° 0.1 mm 0 mps 751 mmHg 50%
    12:00 +20°C° 0 mm 1 mps 751 mmHg 49%
    13:00 +20°C° 0 mm 1 mps 751 mmHg 48%
    14:00 +20°C° 0 mm 1 mps 751 mmHg 48%
    15:00 +20°C° 0 mm 1 mps 750 mmHg 52%
    16:00 +19°C° 0 mm 1 mps 750 mmHg 56%
    17:00 +19°C° 0 mm 1 mps 750 mmHg 60%
    18:00 +16°C° 0.1 mm 1 mps 750 mmHg 66%
    19:00 +15°C° 0.1 mm 1 mps 750 mmHg 72%
    20:00 +13°C° 0.1 mm 1 mps 750 mmHg 78%
    21:00 +12°C° 0 mm 1 mps 750 mmHg 81%
    22:00 +11°C° 0 mm 1 mps 750 mmHg 83%
    23:00 +11°C° 0 mm 1 mps 750 mmHg 86%

    Day after tomorrow, 28 May, Thursday

    Time Temperature Precipitation Wind Pressure Humidity
    00:00 +10°C° 0 mm 1 mps 750 mmHg 87%
    01:00 +10°C° 0 mm 1 mps 750 mmHg 88%
    02:00 +10°C° 0 mm 1 mps 750 mmHg 89%
    03:00 +10°C° 0 mm 1 mps 750 mmHg 88%
    04:00 +10°C° 0 mm 1 mps 749 mmHg 87%
    05:00 +11°C° 0 mm 1 mps 749 mmHg 86%
    06:00 +13°C° 0 mm 1 mps 749 mmHg 78%
    07:00 +15°C° 0 mm 1 mps 749 mmHg 70%
    08:00 +18°C° 0 mm 1 mps 750 mmHg 62%
    09:00 +19°C° 0.1 mm 1 mps 749 mmHg 57%
    10:00 +20°C° 0.1 mm 1 mps 749 mmHg 52%
    11:00 +20°C° 0.1 mm 2 mps 749 mmHg 47%
    12:00 +20°C° 0 mm 2 mps 749 mmHg 47%
    13:00 +20°C° 0 mm 2 mps 749 mmHg 47%
    14:00 +21°C° 0 mm 2 mps 748 mmHg 47%
    15:00 +21°C° 0 mm 1 mps 748 mmHg 51%
    16:00 +21°C° 0 mm 1 mps 748 mmHg 55%
    17:00 +20°C° 0 mm 1 mps 748 mmHg 59%
    18:00 +19°C° 0 mm 1 mps 748 mmHg 65%
    19:00 +16°C° 0 mm 1 mps 748 mmHg 72%
    20:00 +14°C° 0 mm 1 mps 748 mmHg 78%
    21:00 +14°C° 0 mm 1 mps 748 mmHg 80%
    22:00 +12°C° 0 mm 0 mps 748 mmHg 82%
    23:00 +11°C° 0 mm 0 mps 748 mmHg 85%

    29 May, Friday

    Time Temperature Precipitation Wind Pressure Humidity
    00:00 +12°C° 0 mm 1 mps 748 mmHg 87%
    01:00 +12°C° 0 mm 1 mps 747 mmHg 89%
    02:00 +11°C° 0 mm 1 mps 747 mmHg 91%
    03:00 +12°C° 0 mm 1 mps 747 mmHg 91%
    04:00 +12°C° 0 mm 1 mps 747 mmHg 90%
    05:00 +13°C° 0 mm 2 mps 746 mmHg 90%
    06:00 +13°C° 0.1 mm 2 mps 746 mmHg 89%
    07:00 +13°C° 0.1 mm 2 mps 746 mmHg 88%
    08:00 +13°C° 0.1 mm 3 mps 745 mmHg 88%
    09:00 +13°C° 0.8 mm 3 mps 745 mmHg 88%
    10:00 +13°C° 0.8 mm 4 mps 745 mmHg 89%
    11:00 +13°C° 0.8 mm 4 mps 745 mmHg 90%
    12:00 +13°C° 0.9 mm 4 mps 744 mmHg 91%
    13:00 +13°C° 0.9 mm 4 mps 744 mmHg 93%
    14:00 +13°C° 0.9 mm 3 mps 744 mmHg 95%
    15:00 +13°C° 0 mm 4 mps 744 mmHg 94%
    16:00 +13°C° 0 mm 4 mps 744 mmHg 94%
    17:00 +14°C° 0 mm 4 mps 743 mmHg 93%
    18:00 +13°C° 0 mm 4 mps 743 mmHg 94%
    19:00 +13°C° 0 mm 3 mps 743 mmHg 95%
    20:00 +13°C° 0 mm 3 mps 743 mmHg 96%
    21:00 +13°C° 0 mm 3 mps 743 mmHg 96%
    22:00 +13°C° 0 mm 4 mps 743 mmHg 96%
    23:00 +13°C° 0 mm 4 mps 743 mmHg 95%

    30 May, Saturday

    Time Temperature Precipitation Wind Pressure Humidity
    00:00 +13°C° 0.1 mm 4 mps 743 mmHg 95%
    01:00 +13°C° 0.1 mm 4 mps 743 mmHg 95%
    02:00 +14°C° 0.1 mm 4 mps 742 mmHg 95%
    03:00 +14°C° 0.2 mm 4 mps 742 mmHg 95%
    04:00 +14°C° 0.2 mm 4 mps 743 mmHg 95%
    05:00 +14°C° 0.2 mm 5 mps 743 mmHg 95%
    06:00 +14°C° 0.1 mm 5 mps 743 mmHg 95%
    07:00 +14°C° 0.1 mm 5 mps 743 mmHg 94%
    08:00 +15°C° 0.1 mm 5 mps 743 mmHg 94%
    09:00 +14°C° 0.6 mm 5 mps 743 mmHg 95%
    10:00 +14°C° 0.6 mm 5 mps 743 mmHg 96%
    11:00 +14°C° 0.6 mm 5 mps 744 mmHg 96%
    12:00 +14°C° 0.3 mm 5 mps 744 mmHg 96%
    13:00 +15°C° 0.3 mm 5 mps 744 mmHg 95%
    14:00 +15°C° 0.3 mm 5 mps 744 mmHg 95%
    15:00 +15°C° 0 mm 5 mps 744 mmHg 93%
    16:00 +15°C° 0 mm 5 mps 744 mmHg 92%
    17:00 +15°C° 0 mm 5 mps 744 mmHg 90%
    18:00 +15°C° 0 mm 5 mps 744 mmHg 88%
    19:00 +15°C° 0 mm 5 mps 744 mmHg 86%
    20:00 +15°C° 0 mm 6 mps 744 mmHg 84%
    21:00 +15°C° 0 mm 6 mps 744 mmHg 83%
    22:00 +15°C° 0 mm 6 mps 744 mmHg 82%
    23:00 +14°C° 0 mm 6 mps 745 mmHg 81%

    31 May, Sunday

    Time Temperature Precipitation Wind Pressure Humidity
    00:00 +14°C° 0 mm 6 mps 745 mmHg 80%
    01:00 +13°C° 0 mm 6 mps 745 mmHg 80%
    02:00 +11°C° 0 mm 6 mps 745 mmHg 80%
    03:00 +11°C° 0 mm 6 mps 745 mmHg 78%
    04:00 +10°C° 0 mm 6 mps 745 mmHg 76%
    05:00 +10°C° 0 mm 6 mps 745 mmHg 74%
    06:00 +11°C° 0 mm 7 mps 745 mmHg 67%
    07:00 +12°C° 0 mm 7 mps 745 mmHg 61%
    08:00 +13°C° 0 mm 8 mps 746 mmHg 54%
    09:00 +15°C° 0 mm 8 mps 746 mmHg 51%
    10:00 +16°C° 0 mm 8 mps 746 mmHg 48%
    11:00 +17°C° 0 mm 8 mps 746 mmHg 45%
    12:00 +17°C° 0 mm 7 mps 746 mmHg 45%
    13:00 +18°C° 0 mm 7 mps 746 mmHg 45%
    14:00 +18°C° 0 mm 7 mps 746 mmHg 44%
    15:00 +18°C° 0 mm 7 mps 746 mmHg 47%
    16:00 +17°C° 0 mm 6 mps 746 mmHg 49%
    17:00 +17°C° 0 mm 6 mps 747 mmHg 51%
    18:00 +15°C° 0 mm 5 mps 747 mmHg 58%
    19:00 +14°C° 0 mm 4 mps 747 mmHg 65%
    20:00 +12°C° 0 mm 3 mps 748 mmHg 72%
    21:00 +11°C° 0 mm 3 mps 748 mmHg 73%
    22:00 +10°C° 0 mm 3 mps 749 mmHg 75%
    23:00 +10°C° 0 mm 3 mps 749 mmHg 76%
    Show more